This demonstration page uses our WeatherBlox Daily Observations layout. Learn more.

Left ArrowRight Arrow

36.19886, -115.1175

Hourly Observations for October 19, 2020

Temp ( °F °C ) Dew Point ( °F °C ) Humidity (%) Winds ( mph kmh ) Pressure ( in mb ) Visibility ( mi km ) Precip ( " mm )
12:53 am 00:53 Clear 69 20.6 29 -1.7 22 22 W 3 6 29.91 1013 10 16 0.00 0.00
3:53 am 03:53 Clear 68 20 23 -5 18 18 N 7 11 29.91 1013 10 16 0.00 0.00
4:53 am 04:53 Clear 71 21.7 21 -6.1 15 15 NW 10 17 29.91 1013 10 16 0.00 0.00
5:53 am 05:53 Clear 70 21.1 21 -6.1 16 16 WNW 7 11 29.92 1013 10 16 0.00 0.00
6:53 am 06:53 Sunny 68 20 23 -5 18 18 WNW 12 19 29.93 1014 10 16 0.00 0.00
7:53 am 07:53 Sunny 68 20 24 -4.4 19 19 Calm 29.96 1014 10 16 0.00 0.00
8:53 am 08:53 Sunny 74 23.3 24 -4.4 15 15 N 3 6 29.98 1015 10 16 0.00 0.00
9:53 am 09:53 Sunny 80 26.7 24 -4.4 13 13 VRB 3 6 29.98 1015 10 16 0.00 0.00
10:53 am 10:53 Sunny 83 28.3 24 -4.4 11 11 Calm 29.98 1015 10 16 0.00 0.00
11:53 am 11:53 Sunny 86 30 22 -5.6 9 9 Calm 29.96 1015 10 16 0.00 0.00
12:53 pm 12:53 Sunny 87 30.6 23 -5 9 9 Calm 29.94 1014 10 16 0.00 0.00
1:53 pm 13:53 Sunny 89 31.7 22 -5.6 8 8 VRB 3 6 29.90 1013 10 16 0.00 0.00
2:53 pm 14:53 Sunny 90 32.2 24 -4.4 9 9 Calm 29.87 1012 10 16 0.00 0.00
3:53 pm 15:53 Sunny 90 32.2 25 -3.9 9 9 Calm 29.86 1011 10 16 0.00 0.00
4:53 pm 16:53 Sunny 91 32.8 25 -3.9 9 9 SSE 5 7 29.84 1011 10 16 0.00 0.00
5:53 pm 17:53 Sunny 87 30.6 26 -3.3 11 11 SSE 5 7 29.84 1011 10 16 0.00 0.00
6:53 pm 18:53 Clear 84 28.9 26 -3.3 12 12 SE 3 6 29.85 1011 10 16 0.00 0.00
7:53 pm 19:53 Clear 81 27.2 26 -3.3 13 13 Calm 29.87 1011 10 16 0.00 0.00
8:53 pm 20:53 Clear 77 25 29 -1.7 17 17 WNW 7 11 29.86 1011 10 16 0.00 0.00
9:53 pm 21:53 undefined 74 23.3 30 -1.1 20 20 NW 6 9 29.87 1011 10 16 0.00 0.00
10:53 pm 22:53 Clear 74 23.3 29 -1.7 19 19 W 7 11 29.87 1012 10 16 0.00 0.00
11:53 pm 23:53 Clear 70 21.1 28 -2.2 21 21 SE 5 7 29.87 1012 10 16 0.00 0.00

Powered by AerisWeather